Powrót do katalogu

STARLINK-36745

AktywnyŁącznośćVLEO
NORAD 68257·PAYLOAD·🇺🇸 United States

Wystrzelony Mar 17, 2026 z Vandenberg Space Force Base

Loading…

Następne Przeloty (najbliższe 24 godziny)

TLE

ŚwieżeSource: CelesTrak SupGP

Epoka: Sep 15, 2026, 02:52 UTC

1 68257C 26054AB  26258.11993056  .00040021  00000+0  11825-2 0  2585
2 68257  53.1564 127.0943 0001163  78.9234 254.2477 15.34368979    11

Śledź STARLINK-36745 w czasie rzeczywistym z AllMySat

Download on the App Store